Richmond, VA

1:14 AM EST on December 06, 2019 (GMT -0500)
Richmond International

Weather History for KRIC - September, 2019

Change the Weather History Date:

Thursday, September 19, 2019

  Actual Average Record
Temperature  
Mean Temperature 64 °F 70 °F  
Max Temperature 75 °F 80 °F 96 °F (1978)
Min Temperature 54 °F 59 °F 43 °F (1984)
Degree Days  
Heating Degree Days 0 1  
Month to date heating degree days 0 6  
Since 1 July heating degree days 0 7  
Cooling Degree Days 0 6  
Month to date cooling degree days 225 153  
Year to date cooling degree days 1847 1460  
Growing Degree Days 14 (Base 50)    
Moisture  
Dew Point 51 °F    
Average Humidity 66    
Maximum Humidity 93    
Minimum Humidity 36    
Precipitation  
Precipitation 0.00 in 0.14 in 3.63 in (1955)
Month to date precipitation 0.39 2.73  
Year to date precipitation 33.12 32.72  
Snow  
Snow 0.00 in 0.00 in 0.00 in (2002)
Month to date snowfall 0.0 0.0  
Since 1 July snowfall 0.0 0.0  
Snow Depth 0.00 in    
Sea Level Pressure  
Sea Level Pressure 30.30 in    
Wind  
Wind Speed 5 mph ()    
Max Wind Speed 13 mph    
Max Gust Speed 18 mph    
Visibility 10.0 miles    
Events      
T = Trace of Precipitation, MM = Missing Value Source: Averaged Metar Reports

Daily Weather History Graph

Daily Weather History Graph

Search for Another Location

Airport or City:

Astronomy

Sep. 19, 2019 Rise Set
Actual Time 6:54 AM EDT 7:11 PM EDT
Civil Twilight 6:28 AM EDT 7:37 PM EDT
Nautical Twilight 5:57 AM EDT 8:07 PM EDT
Astronomical Twilight 5:26 AM EDT 8:39 PM EDT
Moon 10:25 PM EDT (9/19) 11:50 AM EDT (9/19)
Length of Visible Light 13h 09m
Length of Day
12h 16m
Waning Gibbous, 74% of the Moon is Illuminated
Sep 19
Waning Gibbous
Sep 21
Last Quarter
Sep 28
New
Oct 5
First Quarter
Oct 13
Full

Hourly Weather History & Observations

Time (EDT) Temp. Dew Point Humidity Pressure Visibility Wind Dir Wind Speed Gust Speed Precip Events Conditions
12:54 AM 59.0 °F 55.0 °F 87% 30.25 in 10.0 mi NE 4.6 mph - N/A   Clear
1:54 AM 57.9 °F 54.0 °F 87% 30.25 in 10.0 mi NNE 3.5 mph - N/A   Clear
2:54 AM 57.0 °F 53.1 °F 87% 30.26 in 10.0 mi North 4.6 mph - N/A   Clear
3:54 AM 57.0 °F 53.1 °F 87% 30.27 in 10.0 mi North 4.6 mph - N/A   Clear
4:54 AM 55.0 °F 52.0 °F 89% 30.28 in 10.0 mi North 6.9 mph - N/A   Clear
5:54 AM 55.0 °F 52.0 °F 89% 30.30 in 10.0 mi North 6.9 mph - N/A   Clear
6:54 AM 54.0 °F 51.1 °F 90% 30.32 in 10.0 mi NNW 5.8 mph - N/A   Partly Cloudy
7:54 AM 57.0 °F 53.1 °F 87% 30.32 in 10.0 mi North 8.1 mph - N/A   Partly Cloudy
8:54 AM 61.0 °F 54.0 °F 78% 30.33 in 10.0 mi NNE 8.1 mph - N/A   Scattered Clouds
9:54 AM 66.0 °F 51.1 °F 59% 30.33 in 10.0 mi NE 8.1 mph - N/A   Scattered Clouds
10:54 AM 69.1 °F 50.0 °F 51% 30.35 in 10.0 mi ENE 9.2 mph - N/A   Mostly Cloudy
11:54 AM 70.0 °F 48.0 °F 46% 30.35 in 10.0 mi NNE 11.5 mph 16.1 mph N/A   Mostly Cloudy
12:54 PM 72.0 °F 46.9 °F 41% 30.33 in 10.0 mi East 9.2 mph - N/A   Mostly Cloudy
1:54 PM 75.0 °F 46.9 °F 37% 30.32 in 10.0 mi NE 8.1 mph - N/A   Mostly Cloudy
2:54 PM 73.9 °F 46.9 °F 38% 30.30 in 10.0 mi NE 8.1 mph - N/A   Mostly Cloudy
3:54 PM 75.0 °F 46.9 °F 37% 30.29 in 10.0 mi Variable 5.8 mph - N/A   Scattered Clouds
4:54 PM 73.9 °F 48.9 °F 41% 30.29 in 10.0 mi ENE 8.1 mph - N/A   Partly Cloudy
5:54 PM 71.1 °F 48.0 °F 44% 30.29 in 10.0 mi East 5.8 mph - N/A   Partly Cloudy
6:54 PM 68.0 °F 48.9 °F 50% 30.29 in 10.0 mi East 5.8 mph - N/A   Partly Cloudy
7:54 PM 64.0 °F 50.0 °F 60% 30.30 in 10.0 mi ENE 5.8 mph - N/A   Partly Cloudy
8:54 PM 61.0 °F 51.1 °F 70% 30.32 in 10.0 mi East 5.8 mph - N/A   Clear
9:54 PM 57.9 °F 50.0 °F 75% 30.32 in 10.0 mi East 3.5 mph - N/A   Clear
10:54 PM 57.9 °F 51.1 °F 78% 30.32 in 10.0 mi SE 3.5 mph - N/A   Clear
11:54 PM 57.0 °F 50.0 °F 77% 30.31 in 10.0 mi Calm Calm - N/A   Clear